Wind_Speed
16 18 20 21 21 22 22 23 24 26 27 29 31 33 35 38 42 42 43 42 41 40 39 39 39 38 38 38 38 38 36 35 33 32 31 30 30 30 31 30 30 29 28 26
15 16 17 19 19 20 21 22 23 24 27 28 31 33 36 38 41 43 45 46 46 44 42 41 40 40 40 41 41 41 40 39 38 36 34 34 34 33 33 33 33 33 32 29
12 14 15 17 17 19 21 22 23 24 26 29 32 34 37 39 41 43 44 46 47 47 44 43 42 42 42 42 43 43 43 42 41 40 38 36 35 35 34 35 35 35 32 30
11 14 15 16 18 20 21 23 24 24 25 28 30 33 35 37 39 41 42 44 44 44 44 43 41 42 43 42 42 42 42 42 41 40 38 37 35 35 35 35 34 34 33 31
11 14 16 18 20 20 21 22 22 23 25 27 29 31 31 31 34 39 41 42 42 42 42 41 39 38 39 40 41 41 41 41 40 39 38 36 35 34 34 34 34 34 32 32
12 14 17 19 20 20 21 22 22 22 23 23 24 25 26 26 28 30 32 34 35 35 35 35 35 34 35 36 38 38 39 39 39 39 37 36 35 34 34 34 34 35 34 33
12 14 17 19 20 20 20 21 20 20 20 20 21 20 21 22 22 23 25 26 28 28 28 29 30 32 32 33 34 36 36 37 37 36 36 36 35 35 35 36 35 35 35 35
14 16 18 18 18 18 18 18 17 16 16 16 16 16 17 19 20 20 20 20 22 23 25 26 26 27 29 30 32 33 34 35 35 36 36 36 36 36 36 36 36 37 37 37
16 17 18 17 17 17 17 17 16 15 14 14 14 13 13 16 16 16 15 15 15 16 17 18 19 21 23 25 28 31 32 33 33 34 35 36 36 36 36 36 36 36 37 37
15 16 17 17 17 17 17 17 16 15 14 13 13 12 12 12 14 14 13 13 12 11 11 11 12 13 16 20 23 26 28 30 31 32 32 33 33 33 34 34 34 34 34 35
16 16 16 16 16 16 17 18 16 14 14 14 13 13 14 15 15 14 12 11 10 8 8 6 7 8 9 12 15 17 20 22 24 25 26 27 28 28 28 29 28 28 28 28
18 18 17 17 17 17 18 18 17 15 15 15 14 15 15 15 15 15 14 12 11 10 8 6 5 4 2 3 5 7 9 11 13 15 16 17 18 19 19 20 21 21 21 22
20 20 19 18 18 18 18 18 17 16 16 16 16 16 16 17 17 17 16 15 14 12 10 9 8 6 4 4 3 2 1 1 2 4 5 7 8 9 10 11 12 13 14 15
21 21 20 19 19 19 19 19 19 18 17 16 17 17 18 19 18 18 18 18 17 16 14 13 11 10 9 7 7 8 7 6 5 4 3 2 2 3 3 4 4 5 6 7
21 21 20 19 20 20 20 20 20 20 19 18 18 19 19 19 19 19 19 19 19 19 18 18 18 16 14 13 12 11 11 10 9 8 7 7 6 5 4 4 4 3 3 4
21 21 21 20 20 20 20 21 21 20 20 19 19 19 19 19 19 19 20 20 20 20 20 19 19 18 18 17 16 15 15 13 13 12 11 10 8 7 7 6 6 7 7 8
21 20 21 20 20 20 21 21 21 21 20 19 19 18 18 19 19 19 20 21 21 20 20 20 20 19 18 18 17 16 16 15 14 13 12 11 10 9 9 9 9 9 9 10
20 21 21 21 21 22 22 22 21 21 20 19 18 18 19 19 19 19 20 20 21 21 21 21 20 20 20 20 19 18 18 17 17 16 15 14 12 12 11 11 11 12 12 12
20 20 21 21 21 22 22 21 21 20 19 18 18 18 18 18 19 20 20 20 21 21 21 20 20 20 20 20 20 20 20 19 19 18 17 16 16 15 14 14 14 14 14 13
19 19 20 20 20 21 21 21 20 19 19 18 17 17 17 18 19 19 20 20 21 21 21 21 21 21 21 21 21 21 21 20 19 19 18 18 18 17 17 16 16 15 15 15
16 17 18 19 19 20 21 21 21 19 18 17 16 16 16 17 18 18 19 20 20 20 21 21 21 21 20 20 21 21 21 20 20 20 19 19 19 19 19 18 17 17 17 16
14 15 16 18 18 19 19 20 21 20 18 16 15 15 16 16 17 18 18 18 19 19 19 20 20 19 19 19 20 20 20 20 20 20 20 20 20 20 21 21 20 20 20 19
11 13 14 16 17 18 19 18 19 20 18 16 15 15 15 15 16 16 17 17 17 17 18 18 18 18 18 18 18 19 19 19 20 20 21 21 21 22 23 23 23 23 23 22
7 9 11 13 15 16 17 17 18 18 19 17 15 14 14 14 14 15 15 15 16 16 16 16 16 17 17 17 17 18 18 19 20 20 20 20 21 22 23 24 24 25 25 25
6 7 8 10 12 13 15 16 16 17 17 18 16 13 13 13 13 13 13 13 14 14 14 15 15 16 16 16 16 17 17 17 18 19 19 19 20 21 23 24 25 26 27 27
7 7 7 8 9 10 12 14 14 15 15 16 16 14 11 11 11 11 11 11 12 12 13 13 14 15 15 15 16 16 16 17 17 18 18 19 20 21 22 23 24 26 27 28
Wind_Direction
276 280 283 285 284 284 283 283 284 284 284 281 276 274 273 271 268 267 264 261 261 262 261 260 261 261 261 261 261 261 261 261 260 259 260 260 261 263 264 266 268 266 263 263
283 283 286 288 290 292 294 294 293 290 288 285 280 278 276 273 270 267 265 264 265 265 263 261 261 260 260 261 261 261 261 261 261 260 259 258 259 260 262 263 265 266 263 259
296 298 300 302 303 303 302 300 296 292 288 285 284 281 279 276 273 270 267 267 266 265 264 262 260 257 257 258 259 259 260 260 260 260 261 260 259 260 262 266 264 264 263 257
312 311 310 310 308 306 303 302 299 294 291 289 288 285 282 277 272 268 266 266 264 264 262 260 258 257 256 256 256 256 257 258 258 258 259 259 260 260 261 264 264 265 265 263
322 317 316 315 313 310 307 306 303 299 296 294 293 289 286 281 273 269 268 267 264 264 263 260 257 254 254 253 252 252 253 254 256 256 257 257 258 258 260 262 263 265 266 265
326 321 320 319 318 317 315 313 311 308 306 303 301 296 293 288 280 275 272 270 268 266 263 261 256 253 252 250 248 248 248 250 252 254 255 256 257 259 260 262 264 265 267 268
334 330 330 330 330 328 325 323 320 317 317 315 312 306 301 299 295 287 280 274 271 267 268 265 259 254 249 247 246 246 246 247 249 251 253 255 258 260 262 264 266 268 268 267
350 347 342 340 337 336 335 335 334 331 329 330 328 321 313 312 309 304 299 291 283 277 275 271 265 261 254 250 248 247 248 248 249 251 252 255 259 262 264 265 267 266 265 263
360 354 352 351 350 351 353 352 349 347 346 347 348 343 335 328 321 317 315 315 305 293 288 283 273 266 258 254 253 251 251 252 252 253 255 258 261 264 266 266 267 267 264 263
7 360 358 358 359 1 3 2 2 3 2 360 359 359 356 351 348 346 335 327 326 316 304 297 285 274 263 257 255 255 255 256 257 258 259 261 263 265 265 266 267 267 266 264
14 8 7 5 6 11 11 10 11 10 9 13 17 17 17 17 17 13 6 354 346 340 331 314 294 286 273 263 259 257 256 256 257 259 261 263 264 266 267 267 267 267 265 263
21 18 14 13 16 19 18 18 19 21 22 24 24 28 28 26 26 27 28 25 19 10 2 356 333 335 320 285 266 264 264 259 257 259 263 266 266 266 267 267 265 263 262 261
25 22 18 21 24 25 23 26 30 32 31 32 33 39 39 38 37 34 35 38 39 36 36 37 35 42 53 51 57 52 38 6 281 274 272 275 273 271 271 274 268 261 261 260
28 26 25 27 30 32 31 32 36 36 36 39 43 46 46 45 46 48 51 54 51 52 56 57 59 63 70 76 73 69 66 64 55 43 22 356 336 320 312 299 282 272 267 260
31 30 29 32 36 38 37 38 40 40 41 44 48 50 49 50 53 54 56 60 60 58 60 60 61 64 67 72 74 70 66 61 57 55 52 43 35 23 8 355 343 334 316 290
33 33 33 35 38 40 39 39 40 40 41 44 47 49 51 53 55 56 57 60 60 60 60 61 62 64 66 68 70 68 65 62 58 54 51 46 37 29 17 2 345 330 314 301
35 37 35 37 39 41 41 38 40 41 44 47 49 50 51 52 56 57 58 59 59 60 60 60 62 65 66 66 66 64 61 58 54 49 44 39 31 23 12 0 348 334 319 307
36 38 37 38 39 42 40 39 39 42 46 49 52 54 55 55 56 58 59 59 60 61 63 63 63 63 62 62 62 60 58 56 52 48 44 39 33 25 17 6 356 346 334 320
34 36 37 36 38 40 39 38 39 42 47 49 52 55 56 57 58 58 58 59 61 63 63 63 63 63 62 61 60 60 58 56 52 48 44 39 33 26 17 8 360 352 343 333
32 34 35 35 36 37 37 37 39 43 50 49 53 56 57 57 57 58 58 59 61 62 63 63 64 64 63 62 60 59 56 53 49 44 40 37 33 28 23 17 11 4 356 347
30 33 34 34 35 36 35 36 39 44 48 50 52 54 55 56 57 58 59 61 62 63 63 64 64 63 61 59 56 55 52 50 46 43 40 38 35 31 27 22 17 11 4 357
27 32 34 33 34 34 33 35 38 42 46 49 51 53 55 57 58 58 59 62 63 64 64 63 62 60 58 56 53 50 48 46 45 42 40 39 37 34 32 29 25 20 16 11
18 26 30 31 33 33 34 36 38 40 44 47 50 53 55 58 58 58 60 62 63 63 61 59 57 55 53 50 47 46 45 44 42 41 41 39 38 37 35 33 30 26 23 21
357 12 21 26 29 31 33 36 37 39 41 43 47 50 53 55 56 57 59 61 60 58 57 55 52 50 48 46 44 43 43 43 41 39 39 38 38 37 35 33 31 30 29 28
325 344 1 13 21 25 28 32 35 37 39 41 44 48 51 51 52 53 55 57 55 53 51 49 46 44 42 41 41 41 41 40 39 38 38 38 37 36 35 34 34 34 34 34
303 317 333 348 1 11 19 26 31 34 36 39 41 45 47 47 47 48 50 51 49 45 43 40 38 37 37 37 39 40 40 39 39 38 37 37 36 35 34 34 34 35 35 37
Height
5897 5896 5894 5892 5890 5888 5886 5884 5882 5880 5878 5876 5874 5872 5870 5868 5866 5864 5863 5862 5862 5862 5864 5865 5866 5866 5867 5868 5870 5871 5873 5874 5875 5877 5878 5879 5879 5879 5879 5879 5879 5880 5880 5879
5894 5892 5889 5887 5884 5882 5880 5878 5876 5873 5870 5868 5865 5863 5860 5858 5855 5854 5852 5851 5851 5851 5852 5853 5855 5857 5857 5858 5859 5861 5862 5864 5865 5867 5868 5869 5870 5870 5871 5871 5871 5871 5871 5872
5890 5888 5884 5882 5880 5877 5874 5872 5869 5867 5864 5860 5856 5854 5850 5847 5844 5843 5841 5840 5839 5839 5840 5842 5844 5845 5846 5847 5849 5850 5852 5853 5855 5857 5858 5859 5861 5862 5863 5862 5862 5862 5862 5863
5886 5883 5880 5878 5875 5872 5869 5865 5862 5859 5856 5853 5849 5844 5841 5837 5834 5831 5829 5827 5827 5827 5828 5829 5831 5833 5835 5837 5838 5840 5841 5843 5845 5847 5849 5850 5852 5853 5854 5853 5853 5854 5854 5855
5883 5880 5877 5874 5871 5867 5863 5859 5856 5852 5848 5845 5840 5835 5831 5827 5824 5820 5818 5816 5816 5815 5816 5818 5819 5821 5823 5826 5827 5830 5832 5834 5836 5837 5839 5841 5843 5845 5845 5845 5845 5846 5846 5846
5881 5877 5874 5870 5866 5862 5857 5853 5849 5846 5841 5837 5832 5827 5822 5818 5814 5812 5809 5807 5806 5806 5807 5808 5809 5811 5813 5816 5818 5821 5823 5825 5827 5829 5830 5832 5834 5835 5836 5837 5837 5837 5838 5837
5879 5875 5870 5866 5861 5857 5853 5849 5844 5840 5835 5831 5825 5820 5816 5811 5807 5804 5802 5800 5798 5798 5798 5799 5800 5802 5804 5807 5809 5812 5814 5816 5818 5820 5822 5824 5825 5826 5828 5828 5829 5829 5830 5830
5875 5872 5867 5862 5858 5853 5849 5845 5841 5836 5830 5826 5821 5816 5812 5807 5803 5799 5796 5794 5792 5791 5791 5792 5793 5795 5797 5799 5801 5804 5806 5809 5811 5812 5814 5815 5816 5818 5819 5819 5820 5820 5820 5820
5872 5869 5864 5860 5855 5851 5845 5840 5837 5832 5827 5823 5819 5814 5810 5805 5801 5797 5794 5791 5788 5786 5786 5786 5787 5788 5790 5792 5794 5797 5799 5801 5803 5805 5806 5807 5808 5809 5810 5810 5810 5810 5810 5811
5871 5868 5863 5859 5854 5849 5844 5839 5834 5830 5825 5821 5818 5813 5810 5805 5800 5796 5792 5789 5787 5784 5783 5783 5783 5784 5785 5786 5788 5790 5792 5794 5796 5797 5798 5799 5800 5800 5801 5801 5801 5801 5801 5802
5871 5867 5863 5858 5853 5848 5844 5839 5834 5829 5825 5821 5817 5816 5809 5805 5801 5797 5793 5789 5787 5784 5783 5782 5781 5782 5782 5783 5784 5785 5787 5788 5789 5791 5791 5792 5792 5793 5793 5793 5793 5793 5793 5793
5870 5867 5862 5858 5853 5848 5844 5839 5834 5830 5826 5822 5818 5817 5810 5806 5802 5798 5795 5791 5788 5786 5784 5782 5782 5781 5781 5781 5782 5783 5783 5784 5785 5786 5786 5787 5787 5786 5786 5786 5787 5787 5787 5787
5871 5867 5863 5859 5855 5850 5845 5840 5835 5831 5827 5823 5820 5819 5812 5808 5804 5801 5797 5794 5791 5788 5786 5784 5783 5782 5782 5782 5782 5783 5783 5783 5783 5783 5784 5784 5783 5783 5783 5782 5782 5782 5782 5782
5872 5868 5865 5861 5856 5851 5847 5842 5838 5834 5830 5826 5822 5819 5815 5811 5808 5805 5801 5798 5795 5792 5790 5788 5786 5785 5784 5784 5784 5784 5784 5784 5783 5783 5783 5783 5782 5782 5781 5781 5780 5779 5779 5779
5874 5870 5866 5862 5857 5853 5849 5845 5841 5837 5833 5830 5826 5822 5819 5816 5813 5810 5806 5803 5800 5797 5795 5793 5791 5790 5789 5788 5787 5787 5786 5786 5785 5785 5784 5783 5783 5782 5781 5780 5779 5778 5778 5777
5876 5872 5868 5864 5860 5856 5852 5848 5844 5840 5837 5833 5830 5827 5824 5821 5818 5815 5811 5808 5805 5803 5801 5799 5797 5795 5794 5792 5791 5790 5790 5789 5788 5787 5786 5785 5784 5783 5782 5781 5780 5778 5777 5776
5879 5875 5871 5867 5863 5859 5855 5851 5847 5843 5840 5837 5834 5832 5828 5825 5823 5820 5817 5814 5811 5808 5806 5804 5802 5800 5799 5797 5796 5795 5793 5792 5791 5789 5788 5787 5785 5784 5782 5780 5779 5777 5776 5774
5881 5877 5874 5870 5867 5862 5861 5854 5850 5847 5844 5841 5838 5835 5833 5830 5827 5825 5822 5819 5816 5813 5811 5809 5807 5805 5803 5802 5800 5798 5797 5795 5793 5792 5790 5788 5787 5785 5783 5781 5778 5776 5774 5772
5883 5880 5876 5872 5868 5865 5862 5857 5854 5850 5847 5845 5842 5840 5837 5835 5832 5829 5826 5823 5821 5818 5816 5814 5812 5810 5808 5807 5805 5803 5801 5799 5797 5795 5793 5791 5788 5786 5783 5781 5778 5775 5772 5769
5885 5882 5879 5875 5871 5868 5866 5861 5857 5855 5851 5849 5846 5843 5841 5839 5837 5834 5831 5828 5825 5823 5821 5819 5817 5815 5814 5812 5810 5807 5805 5803 5801 5798 5796 5793 5790 5788 5784 5781 5778 5775 5771 5768
5888 5885 5881 5878 5874 5871 5868 5864 5860 5858 5856 5852 5849 5847 5845 5842 5840 5838 5835 5833 5830 5828 5826 5824 5822 5820 5819 5816 5814 5812 5809 5807 5804 5802 5799 5796 5793 5789 5786 5782 5779 5775 5771 5767
5890 5886 5883 5880 5877 5876 5870 5866 5864 5861 5857 5855 5852 5850 5848 5846 5844 5841 5839 5837 5835 5833 5831 5829 5827 5825 5823 5821 5818 5816 5813 5811 5808 5805 5802 5798 5795 5792 5788 5784 5780 5776 5771 5766
5891 5888 5885 5883 5881 5877 5873 5870 5866 5863 5860 5857 5855 5853 5851 5849 5847 5845 5843 5841 5839 5837 5836 5834 5832 5829 5827 5825 5822 5820 5817 5814 5811 5808 5805 5802 5798 5794 5791 5786 5782 5777 5772 5767
5891 5888 5886 5884 5881 5878 5875 5872 5868 5865 5862 5860 5857 5855 5854 5852 5850 5848 5846 5845 5843 5841 5839 5837 5835 5833 5831 5828 5826 5823 5820 5818 5814 5811 5808 5805 5801 5798 5794 5789 5785 5780 5774 5769
5890 5888 5886 5884 5882 5879 5876 5873 5871 5868 5865 5862 5860 5858 5856 5854 5853 5851 5849 5848 5846 5844 5843 5841 5839 5836 5834 5832 5829 5826 5824 5821 5818 5815 5812 5808 5805 5801 5797 5793 5788 5783 5778 5772
5888 5887 5886 5884 5882 5880 5878 5875 5872 5869 5867 5864 5862 5860 5858 5856 5855 5853 5852 5850 5849 5847 5845 5843 5841 5839 5837 5834 5832 5829 5827 5824 5821 5818 5815 5812 5808 5805 5801 5797 5792 5787 5782 5777